When you browse on this site, cookies collect data to enhance your experience and personalize the content and advertising you see.
Visit our Privacy Policy to learn more. By continuing to use the site, you agree to this use of cookies and data.
  • en Suisse
  • Liste des pays
  • À 7 jours
  • Température de l'eau
  • Carte météo
  • Widgets météo
  • user-avatar
    Se connecter

    Météo par heure à Hajfong

    Ce jour, 24 Août, Samedi

    Heure Température Précipitation Vent Pression Humidité
    00:00 +28°C° 0 mm 1 m/s 754 mmHg 87%
    01:00 +28°C° 0 mm 1 m/s 754 mmHg 88%
    02:00 +28°C° 0 mm 2 m/s 754 mmHg 89%
    03:00 +28°C° 0 mm 2 m/s 753 mmHg 89%
    04:00 +27°C° 0 mm 2 m/s 753 mmHg 89%
    05:00 +28°C° 0 mm 2 m/s 753 mmHg 88%
    06:00 +28°C° 0 mm 2 m/s 753 mmHg 87%
    07:00 +29°C° 0 mm 2 m/s 754 mmHg 86%
    08:00 +30°C° 0.5 mm 2 m/s 754 mmHg 79%
    09:00 +32°C° 0.5 mm 2 m/s 754 mmHg 73%
    10:00 +35°C° 0.5 mm 2 m/s 754 mmHg 66%
    11:00 +35°C° 1.2 mm 2 m/s 753 mmHg 63%
    12:00 +36°C° 1.2 mm 2 m/s 753 mmHg 60%
    13:00 +37°C° 1.2 mm 2 m/s 752 mmHg 58%
    14:00 +36°C° 0.7 mm 2 m/s 752 mmHg 60%
    15:00 +36°C° 0.7 mm 2 m/s 752 mmHg 62%
    16:00 +35°C° 0.7 mm 2 m/s 751 mmHg 64%
    17:00 +34°C° 0.1 mm 2 m/s 751 mmHg 69%
    18:00 +32°C° 0.1 mm 2 m/s 751 mmHg 74%
    19:00 +30°C° 0.1 mm 2 m/s 752 mmHg 78%
    20:00 +30°C° 0 mm 1 m/s 752 mmHg 79%
    21:00 +30°C° 0 mm 1 m/s 752 mmHg 80%
    22:00 +28°C° 0 mm 0 m/s 753 mmHg 80%
    23:00 +29°C° 0.1 mm 1 m/s 753 mmHg 82%

    Demain, 25 Août, Dimanche

    Heure Température Précipitation Vent Pression Humidité
    00:00 +29°C° 0.1 mm 1 m/s 752 mmHg 83%
    01:00 +29°C° 0.1 mm 1 m/s 752 mmHg 85%
    02:00 +29°C° 0 mm 1 m/s 752 mmHg 85%
    03:00 +28°C° 0 mm 1 m/s 752 mmHg 86%
    04:00 +28°C° 0 mm 1 m/s 751 mmHg 86%
    05:00 +29°C° 0 mm 1 m/s 752 mmHg 85%
    06:00 +29°C° 0 mm 1 m/s 752 mmHg 84%
    07:00 +30°C° 0 mm 1 m/s 753 mmHg 83%
    08:00 +31°C° 0 mm 2 m/s 753 mmHg 76%
    09:00 +34°C° 0 mm 2 m/s 753 mmHg 70%
    10:00 +35°C° 0 mm 2 m/s 753 mmHg 63%
    11:00 +36°C° 0.1 mm 2 m/s 752 mmHg 60%
    12:00 +37°C° 0.1 mm 2 m/s 752 mmHg 56%
    13:00 +38°C° 0.1 mm 2 m/s 751 mmHg 53%
    14:00 +37°C° 0.2 mm 2 m/s 750 mmHg 55%
    15:00 +37°C° 0.2 mm 2 m/s 750 mmHg 58%
    16:00 +36°C° 0.2 mm 2 m/s 749 mmHg 61%
    17:00 +35°C° 0 mm 2 m/s 750 mmHg 67%
    18:00 +32°C° 0 mm 2 m/s 750 mmHg 73%
    19:00 +31°C° 0 mm 2 m/s 750 mmHg 79%
    20:00 +31°C° 0 mm 2 m/s 751 mmHg 80%
    21:00 +30°C° 0 mm 2 m/s 751 mmHg 82%
    22:00 +30°C° 0 mm 2 m/s 752 mmHg 83%
    23:00 +30°C° 0.1 mm 2 m/s 752 mmHg 84%

    Après-demain, 26 Août, Lundi

    Heure Température Précipitation Vent Pression Humidité
    00:00 +30°C° 0.1 mm 1 m/s 752 mmHg 84%
    01:00 +29°C° 0.1 mm 1 m/s 751 mmHg 85%
    02:00 +29°C° 0 mm 1 m/s 751 mmHg 85%
    03:00 +29°C° 0 mm 1 m/s 750 mmHg 85%
    04:00 +29°C° 0 mm 1 m/s 750 mmHg 85%
    05:00 +27°C° 0 mm 0 m/s 750 mmHg 84%
    06:00 +27°C° 0 mm 0 m/s 751 mmHg 83%
    07:00 +28°C° 0 mm 0 m/s 751 mmHg 82%
    08:00 +29°C° 0 mm 0 m/s 751 mmHg 77%
    09:00 +30°C° 0 mm 0 m/s 751 mmHg 73%
    10:00 +31°C° 0 mm 0 m/s 751 mmHg 69%
    11:00 +33°C° 0 mm 1 m/s 751 mmHg 67%
    12:00 +33°C° 0 mm 1 m/s 751 mmHg 66%
    13:00 +34°C° 0 mm 1 m/s 750 mmHg 65%
    14:00 +34°C° 0 mm 2 m/s 750 mmHg 67%
    15:00 +34°C° 0 mm 2 m/s 750 mmHg 69%
    16:00 +34°C° 0 mm 3 m/s 749 mmHg 72%
    17:00 +33°C° 0 mm 3 m/s 750 mmHg 74%
    18:00 +31°C° 0 mm 2 m/s 750 mmHg 77%
    19:00 +30°C° 0 mm 2 m/s 751 mmHg 80%
    20:00 +30°C° 0 mm 2 m/s 751 mmHg 81%
    21:00 +30°C° 0 mm 2 m/s 752 mmHg 81%
    22:00 +30°C° 0 mm 2 m/s 752 mmHg 82%
    23:00 +30°C° 0.3 mm 2 m/s 752 mmHg 84%

    27 Août, Mardi

    Heure Température Précipitation Vent Pression Humidité
    00:00 +30°C° 0.3 mm 2 m/s 752 mmHg 85%
    01:00 +29°C° 0.3 mm 2 m/s 752 mmHg 87%
    02:00 +29°C° 1 mm 2 m/s 752 mmHg 87%
    03:00 +29°C° 1 mm 2 m/s 752 mmHg 87%
    04:00 +29°C° 1 mm 2 m/s 752 mmHg 88%
    05:00 +29°C° 0.8 mm 2 m/s 752 mmHg 87%
    06:00 +29°C° 0.8 mm 2 m/s 752 mmHg 86%
    07:00 +29°C° 0.8 mm 2 m/s 753 mmHg 85%
    08:00 +30°C° 0.3 mm 2 m/s 753 mmHg 85%
    09:00 +30°C° 0.3 mm 2 m/s 753 mmHg 84%
    10:00 +30°C° 0.3 mm 2 m/s 754 mmHg 83%
    11:00 +31°C° 0.1 mm 1 m/s 753 mmHg 80%
    12:00 +31°C° 0.1 mm 1 m/s 753 mmHg 76%
    13:00 +32°C° 0.1 mm 1 m/s 752 mmHg 73%
    14:00 +32°C° 0.1 mm 1 m/s 752 mmHg 71%
    15:00 +33°C° 0.1 mm 1 m/s 751 mmHg 68%
    16:00 +34°C° 0.1 mm 2 m/s 751 mmHg 66%
    17:00 +32°C° 0 mm 2 m/s 751 mmHg 72%
    18:00 +31°C° 0 mm 2 m/s 751 mmHg 78%
    19:00 +30°C° 0 mm 2 m/s 752 mmHg 84%
    20:00 +30°C° 0.3 mm 2 m/s 753 mmHg 85%
    21:00 +30°C° 0.3 mm 1 m/s 753 mmHg 86%
    22:00 +29°C° 0.3 mm 1 m/s 754 mmHg 86%
    23:00 +29°C° 0.3 mm 1 m/s 754 mmHg 87%

    28 Août, Mercredi

    Heure Température Précipitation Vent Pression Humidité
    00:00 +29°C° 0.3 mm 1 m/s 754 mmHg 88%
    01:00 +29°C° 0.3 mm 1 m/s 753 mmHg 89%
    02:00 +28°C° 0.2 mm 2 m/s 753 mmHg 89%
    03:00 +28°C° 0.2 mm 2 m/s 753 mmHg 89%
    04:00 +28°C° 0.2 mm 2 m/s 753 mmHg 89%
    05:00 +29°C° 0 mm 2 m/s 753 mmHg 88%
    06:00 +29°C° 0 mm 2 m/s 753 mmHg 87%
    07:00 +29°C° 0 mm 2 m/s 754 mmHg 86%
    08:00 +31°C° 0.5 mm 2 m/s 754 mmHg 80%
    09:00 +32°C° 0.5 mm 2 m/s 754 mmHg 75%
    10:00 +34°C° 0.5 mm 2 m/s 754 mmHg 69%
    11:00 +35°C° 0.5 mm 2 m/s 754 mmHg 68%
    12:00 +35°C° 0.5 mm 3 m/s 753 mmHg 67%
    13:00 +35°C° 0.5 mm 3 m/s 752 mmHg 66%
    14:00 +35°C° 0 mm 4 m/s 752 mmHg 67%
    15:00 +35°C° 0 mm 4 m/s 751 mmHg 68%
    16:00 +34°C° 0 mm 4 m/s 751 mmHg 70%
    17:00 +33°C° 0 mm 4 m/s 751 mmHg 74%
    18:00 +31°C° 0 mm 3 m/s 751 mmHg 78%
    19:00 +30°C° 0 mm 3 m/s 752 mmHg 82%
    20:00 +30°C° 0 mm 3 m/s 752 mmHg 83%
    21:00 +30°C° 0 mm 2 m/s 753 mmHg 84%
    22:00 +30°C° 0 mm 2 m/s 754 mmHg 85%
    23:00 +30°C° 0.1 mm 2 m/s 753 mmHg 85%

    29 Août, Jeudi

    Heure Température Précipitation Vent Pression Humidité
    00:00 +29°C° 0.1 mm 2 m/s 753 mmHg 86%
    01:00 +29°C° 0.1 mm 2 m/s 753 mmHg 87%
    02:00 +29°C° 0.4 mm 2 m/s 752 mmHg 88%
    03:00 +29°C° 0.4 mm 2 m/s 752 mmHg 89%
    04:00 +28°C° 0.4 mm 1 m/s 752 mmHg 90%
    05:00 +29°C° 0 mm 1 m/s 752 mmHg 89%
    06:00 +29°C° 0 mm 1 m/s 752 mmHg 88%
    07:00 +29°C° 0 mm 1 m/s 753 mmHg 87%
    08:00 +31°C° 0 mm 1 m/s 753 mmHg 79%
    09:00 +34°C° 0 mm 2 m/s 753 mmHg 71%
    10:00 +35°C° 0 mm 2 m/s 753 mmHg 63%
    11:00 +36°C° 0 mm 2 m/s 752 mmHg 60%
    12:00 +36°C° 0 mm 3 m/s 752 mmHg 57%
    13:00 +37°C° 0 mm 3 m/s 751 mmHg 55%
    14:00 +37°C° 0 mm 3 m/s 750 mmHg 55%
    15:00 +37°C° 0 mm 3 m/s 750 mmHg 56%
    16:00 +36°C° 0 mm 3 m/s 749 mmHg 57%
    17:00 +35°C° 0 mm 2 m/s 750 mmHg 64%
    18:00 +34°C° 0 mm 2 m/s 750 mmHg 70%
    19:00 +31°C° 0 mm 2 m/s 750 mmHg 77%
    20:00 +31°C° 0.6 mm 2 m/s 751 mmHg 79%
    21:00 +30°C° 0.6 mm 2 m/s 751 mmHg 81%
    22:00 +30°C° 0.6 mm 2 m/s 752 mmHg 82%
    23:00 +30°C° 0.7 mm 2 m/s 751 mmHg 83%
    Voir plus